Time,TemperatureF,DewpointF,PressureIn,WindDirection,WindDirectionDegrees,WindSpeedMPH,WindSpeedGustMPH,Humidity,HourlyPrecipIn,Conditions,Clouds,dailyrainin,SoftwareType,DateUTC
2014-01-01 00:04:00,26.6,22.7,30.12,West,270,0.0,-999.0,85,-99.99,,,0.00,Acu-Link.com,2014-01-01 05:04:00,
2014-01-01 00:20:00,26.4,23.1,30.11,West,270,0.0,-999.0,87,-99.99,,,0.00,Acu-Link.com,2014-01-01 05:20:00,
2014-01-01 00:35:00,26.6,23.3,30.11,NNW,337,0.0,-999.0,87,-99.99,,,0.00,Acu-Link.com,2014-01-01 05:35:00,
2014-01-01 00:50:00,26.4,23.1,30.11,NW,315,0.0,-999.0,87,-99.99,,,0.00,Acu-Link.com,2014-01-01 05:50:00,
2014-01-01 01:06:00,26.2,22.9,30.11,WNW,292,0.0,-999.0,87,-99.99,,,0.00,Acu-Link.com,2014-01-01 06:06:00,
2014-01-01 01:21:00,26.1,22.8,30.10,West,270,0.0,-999.0,87,-99.99,,,0.00,Acu-Link.com,2014-01-01 06:21:00,
2014-01-01 01:36:00,25.9,22.8,30.10,West,270,0.0,-999.0,88,-99.99,,,0.00,Acu-Link.com,2014-01-01 06:36:00,
2014-01-01 01:52:00,25.9,22.8,30.12,East,90,0.0,-999.0,88,-99.99,,,0.00,Acu-Link.com,2014-01-01 06:52:00,
2014-01-01 02:07:00,25.9,22.8,30.12,NW,315,0.0,-999.0,88,-99.99,,,0.00,Acu-Link.com,2014-01-01 07:07:00,
2014-01-01 02:22:00,25.9,22.8,30.12,WNW,292,0.0,-999.0,88,-99.99,,,0.00,Acu-Link.com,2014-01-01 07:22:00,
2014-01-01 02:37:00,25.7,22.9,30.12,WNW,292,0.0,-999.0,89,-99.99,,,0.00,Acu-Link.com,2014-01-01 07:37:00,
2014-01-01 02:53:00,25.7,23.2,30.12,NE,45,0.0,-999.0,90,-99.99,,,0.00,Acu-Link.com,2014-01-01 07:53:00,
2014-01-01 03:08:00,25.9,23.4,30.11,ENE,67,0.0,-999.0,90,-99.99,,,0.00,Acu-Link.com,2014-01-01 08:08:00,
2014-01-01 03:23:00,26.1,23.6,30.11,East,90,0.0,-999.0,90,-99.99,,,0.00,Acu-Link.com,2014-01-01 08:23:00,
2014-01-01 03:38:00,26.1,23.6,30.11,East,90,0.0,-999.0,90,-99.99,,,0.00,Acu-Link.com,2014-01-01 08:38:00,
2014-01-01 03:54:00,26.1,23.6,30.10,ENE,67,0.0,-999.0,90,-99.99,,,0.00,Acu-Link.com,2014-01-01 08:54:00,
2014-01-01 04:09:00,26.1,23.8,30.11,West,270,0.0,-999.0,91,-99.99,,,0.00,Acu-Link.com,2014-01-01 09:09:00,
2014-01-01 04:24:00,26.1,23.8,30.10,East,90,0.0,-999.0,91,-99.99,,,0.00,Acu-Link.com,2014-01-01 09:24:00,
2014-01-01 04:40:00,25.9,23.6,30.09,ESE,112,0.0,-999.0,91,-99.99,,,0.00,Acu-Link.com,2014-01-01 09:40:00,
2014-01-01 04:55:00,25.7,23.4,30.08,East,90,0.0,-999.0,91,-99.99,,,0.00,Acu-Link.com,2014-01-01 09:55:00,
2014-01-01 05:10:00,25.5,23.2,30.09,WNW,292,0.0,-999.0,91,-99.99,,,0.00,Acu-Link.com,2014-01-01 10:10:00,
2014-01-01 05:25:00,25.5,23.5,30.09,East,90,0.0,-999.0,92,-99.99,,,0.00,Acu-Link.com,2014-01-01 10:25:00,
2014-01-01 05:40:00,25.3,23.3,30.11,West,270,0.0,-999.0,92,-99.99,,,0.00,Acu-Link.com,2014-01-01 10:40:00,
2014-01-01 05:56:00,25.3,23.3,30.11,NW,315,0.0,-999.0,92,-99.99,,,0.00,Acu-Link.com,2014-01-01 10:56:00,
2014-01-01 06:11:00,25.0,23.0,30.12,NE,45,0.0,-999.0,92,-99.99,,,0.00,Acu-Link.com,2014-01-01 11:11:00,
2014-01-01 06:26:00,25.0,23.0,30.11,NE,45,0.0,-999.0,92,-99.99,,,0.00,Acu-Link.com,2014-01-01 11:26:00,
2014-01-01 06:42:00,24.8,22.8,30.10,NNW,337,0.0,-999.0,92,-99.99,,,0.00,Acu-Link.com,2014-01-01 11:42:00,
2014-01-01 06:57:00,24.4,22.7,30.11,WNW,292,0.0,-999.0,93,-99.99,,,0.00,Acu-Link.com,2014-01-01 11:57:00,
2014-01-01 07:12:00,24.6,22.9,30.11,ENE,67,0.0,-999.0,93,-99.99,,,0.00,Acu-Link.com,2014-01-01 12:12:00,
2014-01-01 07:28:00,24.6,22.9,30.11,East,90,0.0,-999.0,93,-99.99,,,0.00,Acu-Link.com,2014-01-01 12:28:00,
2014-01-01 07:43:00,24.4,22.7,30.11,ENE,67,0.0,-999.0,93,-99.99,,,0.00,Acu-Link.com,2014-01-01 12:43:00,
2014-01-01 07:58:00,24.6,22.9,30.10,WSW,247,0.0,-999.0,93,-99.99,,,0.00,Acu-Link.com,2014-01-01 12:58:00,
2014-01-01 08:13:00,24.8,23.1,30.10,ESE,112,0.0,-999.0,93,-99.99,,,0.00,Acu-Link.com,2014-01-01 13:13:00,
2014-01-01 08:29:00,25.2,23.5,30.10,WNW,292,0.0,-999.0,93,-99.99,,,0.00,Acu-Link.com,2014-01-01 13:29:00,
2014-01-01 08:44:00,26.2,24.7,30.11,West,270,0.0,-999.0,94,-99.99,,,0.00,Acu-Link.com,2014-01-01 13:44:00,
2014-01-01 08:59:00,27.7,25.9,30.12,West,270,0.0,-999.0,93,-99.99,,,0.00,Acu-Link.com,2014-01-01 13:59:00,
2014-01-01 09:14:00,29.5,27.2,30.10,South,180,0.0,-999.0,91,-99.99,,,0.00,Acu-Link.com,2014-01-01 14:14:00,
2014-01-01 09:30:00,30.9,27.8,30.12,WSW,247,0.0,-999.0,88,-99.99,,,0.00,Acu-Link.com,2014-01-01 14:30:00,
2014-01-01 09:45:00,32.5,28.8,30.12,West,270,0.0,-999.0,86,-99.99,,,0.00,Acu-Link.com,2014-01-01 14:45:00,
2014-01-01 10:00:00,33.6,29.6,30.13,ESE,112,2.2,-999.0,85,-99.99,,,0.00,Acu-Link.com,2014-01-01 15:00:00,
2014-01-01 10:16:00,35.1,29.6,30.13,ESE,112,2.2,-999.0,80,-99.99,,,0.00,Acu-Link.com,2014-01-01 15:16:00,
2014-01-01 10:31:00,35.8,30.2,30.13,SE,135,1.7,-999.0,80,-99.99,,,0.00,Acu-Link.com,2014-01-01 15:31:00,
2014-01-01 10:46:00,37.4,31.2,30.12,South,180,1.7,-999.0,78,-99.99,,,0.00,Acu-Link.com,2014-01-01 15:46:00,
2014-01-01 11:01:00,38.7,31.8,30.11,East,90,2.2,-999.0,76,-99.99,,,0.00,Acu-Link.com,2014-01-01 16:01:00,
2014-01-01 11:17:00,39.2,31.6,30.10,East,90,1.7,-999.0,74,-99.99,,,0.00,Acu-Link.com,2014-01-01 16:17:00,
2014-01-01 11:32:00,40.5,32.5,30.09,SE,135,0.0,-999.0,73,-99.99,,,0.00,Acu-Link.com,2014-01-01 16:32:00,
2014-01-01 11:47:00,41.9,33.5,30.09,West,270,0.0,-999.0,72,-99.99,,,0.00,Acu-Link.com,2014-01-01 16:47:00,
2014-01-01 12:03:00,43.0,32.4,30.08,ESE,112,2.7,-999.0,66,-99.99,,,0.00,Acu-Link.com,2014-01-01 17:03:00,
2014-01-01 12:18:00,43.3,31.6,30.05,ESE,112,0.0,-999.0,63,-99.99,,,0.00,Acu-Link.com,2014-01-01 17:18:00,
2014-01-01 12:33:00,44.1,30.7,30.04,ESE,112,1.7,-999.0,59,-99.99,,,0.00,Acu-Link.com,2014-01-01 17:33:00,
2014-01-01 12:49:00,44.6,30.3,30.03,SE,135,3.2,-999.0,57,-99.99,,,0.00,Acu-Link.com,2014-01-01 17:49:00,
2014-01-01 13:04:00,44.4,29.7,30.03,NNE,22,1.1,-999.0,56,-99.99,,,0.00,Acu-Link.com,2014-01-01 18:04:00,
2014-01-01 13:19:00,45.3,31.0,30.02,SSW,202,1.7,-999.0,57,-99.99,,,0.00,Acu-Link.com,2014-01-01 18:19:00,
2014-01-01 13:34:00,45.9,30.7,30.02,ESE,112,4.2,-999.0,55,-99.99,,,0.00,Acu-Link.com,2014-01-01 18:34:00,
2014-01-01 13:50:00,46.2,30.0,30.02,South,180,1.7,-999.0,53,-99.99,,,0.00,Acu-Link.com,2014-01-01 18:50:00,
2014-01-01 14:05:00,46.4,30.7,30.00,NNE,22,4.7,-999.0,54,-99.99,,,0.00,Acu-Link.com,2014-01-01 19:05:00,
2014-01-01 14:20:00,46.2,29.6,29.99,SE,135,2.2,-999.0,52,-99.99,,,0.00,Acu-Link.com,2014-01-01 19:20:00,
2014-01-01 14:35:00,45.9,30.2,30.00,ESE,112,2.7,-999.0,54,-99.99,,,0.00,Acu-Link.com,2014-01-01 19:35:00,
2014-01-01 14:50:00,45.9,29.7,29.99,East,90,2.2,-999.0,53,-99.99,,,0.00,Acu-Link.com,2014-01-01 19:50:00,
2014-01-01 15:06:00,45.5,30.3,29.99,NE,45,0.0,-999.0,55,-99.99,,,0.00,Acu-Link.com,2014-01-01 20:06:00,
2014-01-01 15:21:00,45.5,30.3,29.98,ESE,112,1.7,-999.0,55,-99.99,,,0.00,Acu-Link.com,2014-01-01 20:21:00,
2014-01-01 15:36:00,45.5,32.0,29.99,South,180,0.0,-999.0,59,-99.99,,,0.00,Acu-Link.com,2014-01-01 20:36:00,
2014-01-01 15:52:00,44.8,32.6,29.98,NE,45,1.7,-999.0,62,-99.99,,,0.00,Acu-Link.com,2014-01-01 20:52:00,
2014-01-01 16:07:00,43.5,32.1,29.98,West,270,1.1,-999.0,64,-99.99,,,0.00,Acu-Link.com,2014-01-01 21:07:00,
2014-01-01 16:22:00,42.6,32.8,29.98,NE,45,0.0,-999.0,68,-99.99,,,0.00,Acu-Link.com,2014-01-01 21:22:00,
2014-01-01 16:37:00,41.4,32.7,29.97,WSW,247,1.7,-999.0,71,-99.99,,,0.00,Acu-Link.com,2014-01-01 21:37:00,
2014-01-01 16:53:00,40.5,32.5,29.97,WSW,247,0.0,-999.0,73,-99.99,,,0.00,Acu-Link.com,2014-01-01 21:53:00,
2014-01-01 17:08:00,39.2,32.0,29.97,West,270,1.7,-999.0,75,-99.99,,,0.00,Acu-Link.com,2014-01-01 22:08:00,
2014-01-01 17:23:00,37.6,31.1,29.98,West,270,1.7,-999.0,77,-99.99,,,0.00,Acu-Link.com,2014-01-01 22:23:00,
2014-01-01 17:39:00,36.3,30.1,29.98,West,270,2.2,-999.0,78,-99.99,,,0.00,Acu-Link.com,2014-01-01 22:39:00,
2014-01-01 17:54:00,35.6,29.7,29.97,WSW,247,2.2,-999.0,79,-99.99,,,0.00,Acu-Link.com,2014-01-01 22:54:00,
2014-01-01 18:09:00,35.1,29.6,29.97,WSW,247,1.1,-999.0,80,-99.99,,,0.00,Acu-Link.com,2014-01-01 23:09:00,
2014-01-01 18:25:00,34.7,29.5,29.97,West,270,0.0,-999.0,81,-99.99,,,0.00,Acu-Link.com,2014-01-01 23:25:00,
2014-01-01 18:40:00,34.2,29.3,29.97,West,270,1.7,-999.0,82,-99.99,,,0.00,Acu-Link.com,2014-01-01 23:40:00,
2014-01-01 18:55:00,33.6,29.0,29.97,WSW,247,0.0,-999.0,83,-99.99,,,0.00,Acu-Link.com,2014-01-01 23:55:00,
2014-01-01 19:10:00,33.1,28.8,29.97,WSW,247,0.0,-999.0,84,-99.99,,,0.00,Acu-Link.com,2014-01-02 00:10:00,
2014-01-01 19:26:00,32.9,29.2,29.97,WSW,247,0.0,-999.0,86,-99.99,,,0.00,Acu-Link.com,2014-01-02 00:26:00,
2014-01-01 19:41:00,32.7,29.0,29.96,NW,315,0.0,-999.0,86,-99.99,,,0.00,Acu-Link.com,2014-01-02 00:41:00,
2014-01-01 19:56:00,32.5,29.1,29.96,West,270,0.0,-999.0,87,-99.99,,,0.00,Acu-Link.com,2014-01-02 00:56:00,
2014-01-01 20:11:00,32.2,28.8,29.97,SW,225,0.0,-999.0,87,-99.99,,,0.00,Acu-Link.com,2014-01-02 01:11:00,
2014-01-01 20:27:00,32.0,29.1,29.94,WSW,247,0.0,-999.0,89,-99.99,,,0.00,Acu-Link.com,2014-01-02 01:27:00,
2014-01-01 20:42:00,31.8,28.9,29.94,North,0,0.0,-999.0,89,-99.99,,,0.00,Acu-Link.com,2014-01-02 01:42:00,
2014-01-01 20:57:00,31.8,29.2,29.95,NW,315,0.0,-999.0,90,-99.99,,,0.00,Acu-Link.com,2014-01-02 01:57:00,
2014-01-01 21:13:00,31.5,28.9,29.93,East,90,0.0,-999.0,90,-99.99,,,0.00,Acu-Link.com,2014-01-02 02:13:00,
2014-01-01 21:28:00,31.1,28.8,29.93,WNW,292,0.0,-999.0,91,-99.99,,,0.00,Acu-Link.com,2014-01-02 02:28:00,
2014-01-01 21:43:00,31.1,28.8,29.94,WSW,247,0.0,-999.0,91,-99.99,,,0.00,Acu-Link.com,2014-01-02 02:43:00,
2014-01-01 21:58:00,31.1,29.1,29.93,West,270,0.0,-999.0,92,-99.99,,,0.00,Acu-Link.com,2014-01-02 02:58:00,
2014-01-01 22:13:00,31.1,29.3,29.92,WSW,247,0.0,-999.0,93,-99.99,,,0.00,Acu-Link.com,2014-01-02 03:13:00,
2014-01-01 22:29:00,31.1,29.3,29.94,West,270,0.0,-999.0,93,-99.99,,,0.00,Acu-Link.com,2014-01-02 03:29:00,
2014-01-01 22:44:00,31.1,29.3,29.92,WSW,247,0.0,-999.0,93,-99.99,,,0.00,Acu-Link.com,2014-01-02 03:44:00,
2014-01-01 22:59:00,31.5,29.7,29.89,West,270,0.0,-999.0,93,-99.99,,,0.00,Acu-Link.com,2014-01-02 03:59:00,
2014-01-01 23:15:00,31.5,29.7,29.89,WNW,292,0.0,-999.0,93,-99.99,,,0.00,Acu-Link.com,2014-01-02 04:15:00,
2014-01-01 23:30:00,31.5,29.7,29.90,WNW,292,0.0,-999.0,93,-99.99,,,0.00,Acu-Link.com,2014-01-02 04:30:00,
2014-01-01 23:45:00,31.3,29.8,29.88,NNW,337,0.0,-999.0,94,-99.99,,,0.00,Acu-Link.com,2014-01-02 04:45:00,